W5LND-10 Weather Reports


time (UTC)temp
C
wind
direction
speed
KPH
gust
KPH
rain 1hr
cm
rain 24hr
cm
rain mn
cm
humidity
%
barometer
mb
20260906220519 35 163 9.7 22.5 0.00 0.00 0.00 36 1005.7
20260906220019 35 198 9.7 17.7 0.00 0.00 0.00 35 1005.8
20260906215519 35 147 8.0 20.9 0.00 0.00 0.00 35 1005.8
20260906215019 35 180 6.4 14.5 0.00 0.00 0.00 35 1005.9
20260906214519 36 192 6.4 19.3 0.00 0.00 0.00 35 1006.0
20260906214019 35 165 3.2 9.7 0.00 0.00 0.00 35 1005.9
20260906213519 35 182 4.8 8.0 0.00 0.00 0.00 35 1006.0
20260906213019 35 184 6.4 16.1 0.00 0.00 0.00 35 1006.2
20260906212519 35 189 8.0 14.5 0.00 0.00 0.00 36 1006.2
20260906212019 35 192 11.3 16.1 0.00 0.00 0.00 36 1006.3
20260906211519 35 173 14.5 27.4 0.00 0.00 0.00 36 1006.5
20260906211019 35 142 11.3 27.4 0.00 0.00 0.00 35 1006.6
20260906210519 35 182 8.0 20.9 0.00 0.00 0.00 34 1006.6
20260906210019 35 201 6.4 16.1 0.00 0.00 0.00 35 1006.7
20260906205519 35 182 6.4 14.5 0.00 0.00 0.00 35 1006.8
20260906205019 35 154 9.7 11.3 0.00 0.00 0.00 36 1007.0
20260906204519 34 169 11.3 25.7 0.00 0.00 0.00 36 1007.0
20260906204019 35 155 9.7 20.9 0.00 0.00 0.00 35 1007.1
20260906203519 35 175 8.0 19.3 0.00 0.00 0.00 35 1007.2
20260906203019 35 153 9.7 16.1 0.00 0.00 0.00 36 1007.2
20260906202659 35 125 11.3 24.1 0.00 0.00 0.00 36 1007.2
20260906202019 35 146 9.7 19.3 0.00 0.00 0.00 36 1007.3
20260906201519 35 159 12.9 27.4 0.00 0.00 0.00 36 1007.4
20260906201019 35 157 9.7 29.0 0.00 0.00 0.00 36 1007.4
20260906200519 35 165 9.7 19.3 0.00 0.00 0.00 36 1007.5
20260906200019 34 163 11.3 25.7 0.00 0.00 0.00 37 1007.5
20260906195519 34 167 11.3 25.7 0.00 0.00 0.00 36 1007.6
20260906195019 33 176 8.0 19.3 0.00 0.00 0.00 37 1007.6
20260906194519 33 181 8.0 14.5 0.00 0.00 0.00 37 1007.7
20260906194019 33 243 8.0 19.3 0.00 0.00 0.00 38 1007.7
20260906193519 33 181 9.7 16.1 0.00 0.00 0.00 38 1007.8
20260906193019 33 158 11.3 22.5 0.00 0.00 0.00 38 1007.8
20260906192519 33 121 11.3 22.5 0.00 0.00 0.00 38 1007.8
20260906192019 33 167 8.0 14.5 0.00 0.00 0.00 38 1007.8
20260906191519 33 184 6.4 14.5 0.00 0.00 0.00 38 1007.9
20260906191019 34 144 6.4 20.9 0.00 0.00 0.00 37 1007.9
20260906190519 34 144 4.8 17.7 0.00 0.00 0.00 37 1007.9
20260906190019 34 249 6.4 17.7 0.00 0.00 0.00 38 1008.1
20260906185519 34 174 8.0 14.5 0.00 0.00 0.00 38 1008.2
20260906185019 34 200 8.0 16.1 0.00 0.00 0.00 38 1008.2
20260906184519 34 205 8.0 17.7 0.00 0.00 0.00 38 1008.2
20260906184019 35 243 8.0 14.5 0.00 0.00 0.00 38 1008.3
20260906183519 35 174 9.7 17.7 0.00 0.00 0.00 38 1008.4
20260906183019 34 193 8.0 17.7 0.00 0.00 0.00 38 1008.4
20260906182519 33 239 6.4 14.5 0.00 0.00 0.00 40 1008.5
20260906182019 33 231 9.7 12.9 0.00 0.00 0.00 41 1008.6
20260906181519 33 172 8.0 17.7 0.00 0.00 0.00 40 1008.8
20260906181019 33 136 6.4 22.5 0.00 0.00 0.00 40 1008.9
20260906180519 33 192 8.0 14.5 0.00 0.00 0.00 40 1009.0
20260906180019 33 171 8.0 14.5 0.00 0.00 0.00 40 1009.0
20260906175519 33 137 8.0 17.7 0.00 0.00 0.00 41 1009.1
20260906175019 33 150 9.7 16.1 0.00 0.00 0.00 41 1009.1
20260906174519 33 182 11.3 22.5 0.00 0.00 0.00 41 1009.2
20260906174019 33 159 9.7 24.1 0.00 0.00 0.00 42 1009.2
20260906173519 32 115 9.7 17.7 0.00 0.00 0.00 43 1009.4
20260906173019 32 179 11.3 19.3 0.00 0.00 0.00 44 1009.4
20260906172519 32 142 8.0 22.5 0.00 0.00 0.00 44 1009.5
20260906172019 32 153 8.0 19.3 0.00 0.00 0.00 44 1009.4
20260906171519 32 212 8.0 24.1 0.00 0.00 0.00 44 1009.5
20260906171019 32 159 9.7 25.7 0.00 0.00 0.00 43 1009.5
20260906170519 32 165 9.7 29.0 0.00 0.00 0.00 43 1009.6
20260906170019 32 148 8.0 20.9 0.00 0.00 0.00 44 1009.5
20260906165519 32 174 9.7 16.1 0.00 0.00 0.00 44 1009.5
20260906165019 32 146 11.3 17.7 0.00 0.00 0.00 44 1009.6
20260906164519 32 142 9.7 25.7 0.00 0.00 0.00 44 1009.6
20260906164019 32 147 6.4 20.9 0.00 0.00 0.00 46 1009.6
20260906163520 32 150 9.7 20.9 0.00 0.00 0.00 46 1009.6
20260906163020 32 198 11.3 19.3 0.00 0.00 0.00 47 1009.5
20260906162520 32 140 8.0 20.9 0.00 0.00 0.00 46 1009.5
20260906162020 32 130 6.4 14.5 0.00 0.00 0.00 48 1009.4
20260906161520 31 201 9.7 14.5 0.00 0.00 0.00 48 1009.4
20260906161020 31 178 9.7 20.9 0.00 0.00 0.00 48 1009.3
20260906160520 31 136 6.4 14.5 0.00 0.00 0.00 48 1009.3
20260906160020 31 144 8.0 12.9 0.00 0.00 0.00 48 1009.3
20260906155520 31 130 8.0 17.7 0.00 0.00 0.00 48 1009.2
20260906155020 31 140 6.4 12.9 0.00 0.00 0.00 49 1009.2
20260906154520 31 161 4.8 14.5 0.00 0.00 0.00 51 1009.2
20260906154020 31 159 4.8 11.3 0.00 0.00 0.00 51 1009.3
20260906153520 31 167 3.2 9.7 0.00 0.00 0.00 52 1009.1
20260906153020 31 163 3.2 11.3 0.00 0.00 0.00 53 1009.1
20260906152520 30 166 4.8 8.0 0.00 0.00 0.00 53 1009.0
20260906152020 30 167 3.2 11.3 0.00 0.00 0.00 54 1009.0
20260906151520 30 186 1.6 6.4 0.00 0.00 0.00 55 1009.1
20260906151020 30 187 1.6 6.4 0.00 0.00 0.00 55 1009.1
20260906150520 30 187 1.6 3.2 0.00 0.00 0.00 56 1009.0
20260906150020 29 187 1.6 4.8 0.00 0.00 0.00 57 1009.0
20260906145520 29 187 1.6 6.4 0.00 0.00 0.00 57 1009.1
20260906145020 29 188 1.6 3.2 0.00 0.00 0.00 58 1009.2
20260906144520 28 188 3.2 6.4 0.00 0.00 0.00 58 1009.3
20260906144020 28 189 3.2 6.4 0.00 0.00 0.00 60 1009.4
20260906143520 28 172 3.2 9.7 0.00 0.00 0.00 60 1009.4
20260906143020 28 172 3.2 9.7 0.00 0.00 0.00 60 1009.3
20260906142520 27 170 3.2 8.0 0.00 0.00 0.00 61 1009.4
20260906142020 27 169 4.8 9.7 0.00 0.00 0.00 62 1009.5
20260906141520 27 167 4.8 12.9 0.00 0.00 0.00 63 1009.4
20260906141020 27 169 3.2 9.7 0.00 0.00 0.00 64 1009.5
20260906140520 26 209 1.6 6.4 0.00 0.00 0.00 65 1009.5
20260906140020 26 211 1.6 4.8 0.00 0.00 0.00 66 1009.5
20260906135520 26 212 3.2 6.4 0.00 0.00 0.00 67 1009.6
20260906135020 26 213 3.2 8.0 0.00 0.00 0.00 67 1009.5
20260906134520 25 229 3.2 6.4 0.00 0.00 0.00 68 1009.5
20260906134020 25 229 1.6 6.4 0.00 0.00 0.00 68 1009.4
20260906133520 25 233 0.0 3.2 0.00 0.00 0.00 69 1009.3
20260906133020 25 234 0.0 0.0 0.00 0.00 0.00 70 1009.3
20260906132520 24 234 0.0 0.0 0.00 0.00 0.00 71 1009.2
20260906132020 24 234 0.0 1.6 0.00 0.00 0.00 71 1009.1
20260906131520 24 234 0.0 1.6 0.00 0.00 0.00 71 1009.2
20260906131020 24 234 410.4 0.0 0.00 0.00 0.00 72 1009.1
20260906130520 23 234 410.4 0.0 0.00 0.00 0.00 72 1009.1
20260906130020 23 234 0.0 0.0 0.00 0.00 0.00 72 1009.1
20260906125520 23 234 0.0 0.0 0.00 0.00 0.00 72 1009.1
20260906125020 23 234 0.0 0.0 0.00 0.00 0.00 71 1009.0
20260906124520 23 234 0.0 1.6 0.00 0.00 0.00 71 1008.9
20260906124020 23 234 0.0 0.0 0.00 0.00 0.00 71 1008.7
20260906123520 23 234 0.0 0.0 0.00 0.00 0.00 70 1008.7
20260906123020 23 234 0.0 1.6 0.00 0.00 0.00 70 1008.6
20260906122520 23 234 0.0 1.6 0.00 0.00 0.00 70 1008.7
20260906122020 24 246 0.0 1.6 0.00 0.00 0.00 70 1008.6
20260906121520 24 246 0.0 3.2 0.00 0.00 0.00 69 1008.5
20260906121020 24 246 0.0 0.0 0.00 0.00 0.00 69 1008.5
20260906120520 24 246 0.0 0.0 0.00 0.00 0.00 69 1008.3
20260906120020 24 246 0.0 0.0 0.00 0.00 0.00 69 1008.3
20260906115520 24 246 0.0 0.0 0.00 0.00 0.00 68 1008.3
20260906115020 24 246 0.0 0.0 0.00 0.00 0.00 68 1008.3
20260906114520 25 246 0.0 0.0 0.00 0.00 0.00 68 1008.2
20260906114020 25 246 0.0 1.6 0.00 0.00 0.00 68 1008.2
20260906113520 25 246 0.0 0.0 0.00 0.00 0.00 68 1008.3
20260906113020 25 246 0.0 0.0 0.00 0.00 0.00 67 1008.3
20260906112520 25 246 0.0 0.0 0.00 0.00 0.00 67 1008.2
20260906112020 25 246 0.0 0.0 0.00 0.00 0.00 67 1008.2
20260906111520 25 246 0.0 0.0 0.00 0.00 0.00 67 1008.1
20260906111020 25 246 0.0 0.0 0.00 0.00 0.00 67 1008.2
20260906110520 25 246 0.0 3.2 0.00 0.00 0.00 67 1008.0
20260906110020 25 246 1.6 4.8 0.00 0.00 0.00 67 1007.9
20260906105520 25 246 1.6 4.8 0.00 0.00 0.00 67 1007.9
20260906105020 25 245 1.6 4.8 0.00 0.00 0.00 67 1007.8
20260906104520 25 243 1.6 6.4 0.00 0.00 0.00 67 1007.7
20260906104020 25 242 1.6 4.8 0.00 0.00 0.00 66 1007.7
20260906103520 25 242 1.6 6.4 0.00 0.00 0.00 66 1007.7
20260906103020 25 242 1.6 8.0 0.00 0.00 0.00 66 1007.6
20260906102520 25 242 0.0 6.4 0.00 0.00 0.00 66 1007.7
20260906102020 25 242 0.0 3.2 0.00 0.00 0.00 66 1007.7
20260906101520 25 242 1.6 6.4 0.00 0.00 0.00 66 1007.7
20260906101020 25 242 1.6 6.4 0.00 0.00 0.00 66 1007.6
20260906100520 25 238 1.6 4.8 0.00 0.00 0.00 66 1007.6
20260906100020 25 237 3.2 8.0 0.00 0.00 0.00 65 1007.5
20260906095520 25 233 4.8 8.0 0.00 0.00 0.00 65 1007.4
20260906095020 26 232 3.2 9.7 0.00 0.00 0.00 65 1007.3
20260906094520 26 231 4.8 8.0 0.00 0.00 0.00 65 1007.3
20260906094020 26 231 6.4 12.9 0.00 0.00 0.00 64 1007.3
20260906093520 26 218 8.0 16.1 0.00 0.00 0.00 64 1007.3
20260906093020 26 240 8.0 16.1 0.00 0.00 0.00 64 1007.2
20260906092520 26 247 8.0 14.5 0.00 0.00 0.00 64 1007.2
20260906092020 26 242 6.4 17.7 0.00 0.00 0.00 65 1007.2
20260906091520 25 252 6.4 11.3 0.00 0.00 0.00 65 1007.2
20260906091020 26 237 6.4 12.9 0.00 0.00 0.00 65 1007.2
20260906090520 26 234 6.4 14.5 0.00 0.00 0.00 64 1007.2
20260906090020 26 239 6.4 9.7 0.00 0.00 0.00 64 1007.2
20260906085520 26 236 6.4 9.7 0.00 0.00 0.00 63 1007.2
20260906085020 26 234 6.4 12.9 0.00 0.00 0.00 63 1007.3
20260906084520 26 238 6.4 9.7 0.00 0.00 0.00 63 1007.3
20260906084020 26 232 8.0 14.5 0.00 0.00 0.00 63 1007.4
20260906083520 26 217 8.0 14.5 0.00 0.00 0.00 63 1007.3
20260906083020 26 232 8.0 14.5 0.00 0.00 0.00 63 1007.3
20260906082520 26 262 6.4 14.5 0.00 0.00 0.00 62 1007.2
20260906082021 26 244 8.0 14.5 0.00 0.00 0.00 62 1007.1
20260906081520 26 246 9.7 16.1 0.00 0.00 0.00 61 1007.1
20260906081021 27 238 8.0 19.3 0.00 0.00 0.00 61 1007.3
20260906080521 27 257 6.4 12.9 0.00 0.00 0.00 61 1007.3
20260906080021 27 246 6.4 12.9 0.00 0.00 0.00 61 1007.4
20260906075521 27 240 4.8 12.9 0.00 0.00 0.00 61 1007.6
20260906075021 27 248 3.2 12.9 0.00 0.00 0.00 60 1007.6
20260906074521 27 242 1.6 9.7 0.00 0.00 0.00 60 1007.6
20260906074021 27 242 1.6 6.4 0.00 0.00 0.00 60 1007.6
20260906073521 27 242 3.2 4.8 0.00 0.00 0.00 59 1007.6
20260906073021 27 241 4.8 8.0 0.00 0.00 0.00 59 1007.6
20260906072521 27 240 4.8 9.7 0.00 0.00 0.00 59 1007.5
20260906072021 27 239 6.4 8.0 0.00 0.00 0.00 59 1007.5
20260906071521 27 236 8.0 12.9 0.00 0.00 0.00 60 1007.4
20260906071021 27 227 8.0 12.9 0.00 0.00 0.00 59 1007.6
20260906070521 27 244 8.0 12.9 0.00 0.00 0.00 59 1007.6
20260906070021 27 232 8.0 17.7 0.00 0.00 0.00 59 1007.7
20260906065521 27 226 8.0 19.3 0.00 0.00 0.00 58 1007.7
20260906065021 27 229 8.0 17.7 0.00 0.00 0.00 57 1007.7
20260906064521 28 232 9.7 16.1 0.00 0.00 0.00 57 1007.8
20260906064021 27 209 9.7 16.1 0.00 0.00 0.00 58 1007.8
20260906063521 27 246 9.7 17.7 0.00 0.00 0.00 58 1007.8
20260906063021 27 229 9.7 19.3 0.00 0.00 0.00 58 1007.8
20260906062521 27 211 9.7 17.7 0.00 0.00 0.00 57 1007.8
20260906062021 28 212 8.0 16.1 0.00 0.00 0.00 57 1007.6
20260906061521 28 223 8.0 17.7 0.00 0.00 0.00 57 1007.7
20260906061021 28 238 9.7 16.1 0.00 0.00 0.00 57 1007.8
20260906060521 28 229 9.7 20.9 0.00 0.00 0.00 56 1007.7
20260906060021 28 215 9.7 22.5 0.00 0.00 0.00 56 1007.7
20260906055521 28 193 9.7 17.7 0.00 0.00 0.00 56 1007.8
20260906055021 28 214 9.7 20.9 0.00 0.00 0.00 56 1007.9
20260906054521 28 207 9.7 19.3 0.00 0.00 0.00 56 1008.0
20260906054021 28 215 9.7 25.7 0.00 0.00 0.00 55 1007.9
20260906053521 28 213 11.3 22.5 0.00 0.00 0.00 55 1007.9
20260906053021 28 257 11.3 20.9 0.00 0.00 0.00 55 1007.8
20260906052521 28 204 11.3 25.7 0.00 0.00 0.00 55 1007.9
20260906052021 29 229 11.3 20.9 0.00 0.00 0.00 54 1007.8
20260906051521 29 219 9.7 25.7 0.00 0.00 0.00 54 1007.8
20260906051021 29 240 9.7 17.7 0.00 0.00 0.00 53 1007.9
20260906050521 30 234 8.0 22.5 0.00 0.00 0.00 53 1007.9
20260906050021 30 241 8.0 20.9 0.00 0.00 0.00 52 1007.9
20260906045521 30 234 6.4 11.3 0.00 0.00 0.00 52 1007.9
20260906045021 30 240 6.4 9.7 0.00 0.00 0.00 51 1007.9
20260906044521 30 193 8.0 14.5 0.00 0.00 0.00 51 1007.9
20260906044021 30 202 8.0 14.5 0.00 0.00 0.00 50 1007.8
20260906043521 30 179 9.7 14.5 0.00 0.00 0.00 49 1007.8
20260906043021 30 182 9.7 16.1 0.00 0.00 0.00 48 1007.8
20260906042521 31 207 8.0 16.1 0.00 0.00 0.00 47 1007.8
20260906042021 31 200 8.0 17.7 0.00 0.00 0.00 47 1007.7
20260906041521 31 180 8.0 14.5 0.00 0.00 0.00 47 1007.6
20260906041021 31 188 8.0 12.9 0.00 0.00 0.00 47 1007.5
20260906040521 31 182 8.0 14.5 0.00 0.00 0.00 47 1007.5
20260906040021 31 192 8.0 14.5 0.00 0.00 0.00 47 1007.5
20260906035521 31 188 8.0 12.9 0.00 0.00 0.00 47 1007.3
20260906035021 31 190 8.0 14.5 0.00 0.00 0.00 47 1007.5
20260906034521 31 192 8.0 14.5 0.00 0.00 0.00 47 1007.5
20260906034021 31 193 6.4 11.3 0.00 0.00 0.00 47 1007.5
20260906033521 31 185 8.0 11.3 0.00 0.00 0.00 46 1007.4
20260906033021 31 188 8.0 11.3 0.00 0.00 0.00 46 1007.5
20260906032521 31 190 8.0 16.1 0.00 0.00 0.00 46 1007.3
20260906032021 31 188 6.4 11.3 0.00 0.00 0.00 45 1007.2
20260906031521 31 187 6.4 11.3 0.00 0.00 0.00 45 1007.1
20260906031021 31 186 6.4 9.7 0.00 0.00 0.00 44 1007.1
20260906030521 32 196 6.4 9.7 0.00 0.00 0.00 43 1007.0
20260906030021 32 188 6.4 9.7 0.00 0.00 0.00 43 1007.0
20260906025521 32 192 6.4 11.3 0.00 0.00 0.00 42 1006.9
20260906025021 32 186 8.0 11.3 0.00 0.00 0.00 42 1006.8
20260906024521 32 166 6.4 14.5 0.00 0.00 0.00 41 1006.8
20260906024021 32 169 6.4 14.5 0.00 0.00 0.00 41 1006.7
20260906023521 32 189 4.8 12.9 0.00 0.00 0.00 40 1006.7
20260906023021 32 169 4.8 11.3 0.00 0.00 0.00 39 1006.5
20260906022521 32 171 6.4 9.7 0.00 0.00 0.00 38 1006.4
20260906022021 32 168 4.8 9.7 0.00 0.00 0.00 38 1006.5
20260906021521 32 171 4.8 8.0 0.00 0.00 0.00 38 1006.5
20260906021021 32 167 4.8 8.0 0.00 0.00 0.00 38 1006.2
20260906020521 32 167 4.8 12.9 0.00 0.00 0.00 38 1006.1
20260906020021 32 167 4.8 9.7 0.00 0.00 0.00 38 1006.0
20260906015521 32 165 4.8 9.7 0.00 0.00 0.00 38 1006.0
20260906015021 32 166 4.8 8.0 0.00 0.00 0.00 37 1005.9
20260906014521 33 167 3.2 9.7 0.00 0.00 0.00 37 1005.9
20260906014021 33 167 1.6 6.4 0.00 0.00 0.00 36 1005.8
20260906013521 33 167 1.6 8.0 0.00 0.00 0.00 36 1005.7
20260906013021 33 167 1.6 4.8 0.00 0.00 0.00 35 1005.7
20260906012521 33 167 1.6 4.8 0.00 0.00 0.00 35 1005.6
20260906012021 33 167 3.2 4.8 0.00 0.00 0.00 35 1005.5
20260906011521 33 167 3.2 8.0 0.00 0.00 0.00 35 1005.4
20260906011021 34 167 3.2 9.7 0.00 0.00 0.00 34 1005.4
20260906010521 34 168 4.8 8.0 0.00 0.00 0.00 34 1005.5
20260906010021 34 168 4.8 8.0 0.00 0.00 0.00 34 1005.5
20260906005521 34 168 4.8 11.3 0.00 0.00 0.00 34 1005.4
20260906005021 34 163 4.8 11.3 0.00 0.00 0.00 34 1005.4
20260906004521 35 151 4.8 11.3 0.00 0.00 0.00 34 1005.3
20260906004021 35 154 6.4 11.3 0.00 0.00 0.00 33 1005.3
20260906003521 35 159 8.0 12.9 0.00 0.00 0.00 33 1005.3
20260906003021 35 140 9.7 16.1 0.00 0.00 0.00 33 1005.3
20260906002521 35 141 9.7 17.7 0.00 0.00 0.00 33 1005.2
20260906002021 35 139 8.0 14.5 0.00 0.00 0.00 33 1005.3
20260906001521 35 138 9.7 16.1 0.00 0.00 0.00 34 1005.2
20260906001021 35 134 9.7 17.7 0.00 0.00 0.00 33 1005.2
20260906000521 35 153 9.7 14.5 0.00 0.00 0.00 34 1005.1
20260906000021 35 178 9.7 17.7 0.00 0.00 0.00 34 1005.1
20260905235522 35 133 8.0 16.1 0.00 0.00 0.00 34 1005.0
20260905235021 35 159 8.0 11.3 0.00 0.00 0.00 34 1004.9
20260905234522 35 165 6.4 14.5 0.00 0.00 0.00 33 1004.8
20260905234022 35 138 4.8 14.5 0.00 0.00 0.00 34 1004.8
20260905233522 35 169 8.0 16.1 0.00 0.00 0.00 35 1004.9
20260905233022 35 158 9.7 17.7 0.00 0.00 0.00 35 1004.8
20260905232522 35 163 9.7 24.1 0.00 0.00 0.00 35 1004.8
20260905232022 36 129 9.7 14.5 0.00 0.00 0.00 34 1004.7
20260905231522 36 180 11.3 20.9 0.00 0.00 0.00 34 1004.7
20260905231022 36 179 9.7 20.9 0.00 0.00 0.00 34 1004.6
20260905230522 36 142 9.7 17.7 0.00 0.00 0.00 34 1004.6
20260905230022 36 119 8.0 19.3 0.00 0.00 0.00 34 1004.6
20260905225522 36 186 8.0 14.5 0.00 0.00 0.00 34 1004.6
20260905225022 36 181 11.3 20.9 0.00 0.00 0.00 34 1004.7
20260905224522 36 165 9.7 19.3 0.00 0.00 0.00 34 1004.7
20260905224022 36 144 11.3 16.1 0.00 0.00 0.00 34 1004.6
20260905223522 36 148 12.9 22.5 0.00 0.00 0.00 35 1004.7
20260905223022 36 179 11.3 22.5 0.00 0.00 0.00 34 1004.8
20260905222522 36 211 9.7 14.5 0.00 0.00 0.00 34 1004.8
20260905222022 36 175 8.0 14.5 0.00 0.00 0.00 33 1004.9
20260905221522 36 187 8.0 16.1 0.00 0.00 0.00 33 1004.8
20260905221022 36 168 8.0 16.1 0.00 0.00 0.00 34 1004.8